CZ-4C DEB, 45484

Orbit data source: Space-Track

CZ-4C DEB, 45484 is space debris in LEO originally from a launch on Tue, 10 Apr 2018 UTC launched from the Jiuquan Satellite Launch Center, China (JSC). Debris objects in space refer to the collection of defunct objects orbiting the Earth. Examples of debris include non-operational satellites, rocket bodies, and fragments generated from explosions, collisions, or faulty payload assembly.

Loading next visibility...
CZ-4C DEB details
Identifier
45484, 2018-034M
Orbit
LEO
Last TLE update2 days ago
Origin
Flag of CNCNSA (CN / PRC)
ManufacturerUnknown
MissionSpacecraft
Bus & MotorUnknown
MassUnknown
Launch date (UTC)
2018-04-10 (7 years ago)
Launch vehicleUnknown
Launch site
Jiuquan Satellite Launch Center, China (JSC)
Object type
Payload
Rocket body
Debris
Shape & HBRUnknown
Radar Cross SectionSmall (<0.1 m²)

Expand to show TLE details & history

TLE from 2 days ago
0 CZ-4C DEB
1 45484U 18034M   24359.89186494 -.00000049  00000-0  62817-4 0  9995
2 45484  63.3930  63.3725 0217991   6.7538 353.6342 13.42899980294986
Epoch: 2024-12-24T21:24Z
Definitive object data (Epoch: 2024-12-24T21:24:17.13Z)
Latitude-0.00001°
Longitude8.40767°
Altitude938.31 km
Speed7.463 km/s
True Right ascension04h 13m 29s
True Declination0° 00' 00"
Sunlit
Object was in full shadow at TLE epoch
Visualization TLE readout
Latitude63.41417°
Longitude88.71243°
Altitude1,079.012 km
Speed7.333 km/s
Apparent Right ascension04h 56m 47s
Apparent Declination27° 32' 12"
Sunlit
Object is in full shadow
Visualization observer readout
Local Sidereal Time14:17:45
Azimuth324.398° NNW
Elevation-13.073°
Doppler factor1
Orbital elements
Apogee altitude1,260.285 km
Perigee altitude934.369 km
Semi-major axis7,475.464 km
Eccentricity0.0217991
Inclination63.393°
RAAN63.3725°
Arg. of periapsis6.7538°
True anomaly353.34953°
Mean anomaly353.6342°
Eccentric anomaly353.49265°
Mean motion3.35804 °/min
BSTAR0.000062817
Orbital period107.21 mins
Loading maneuver chart data...
Loading historical data...
Loading historical data...
Loading historical data...
Loading historical data...
Loading historical data...
Loading historical data...
Loading historical data...

CZ-4C DEB Visibility forecast

Observer location: undefined°, undefined

Span
Click to sort rows by Start time (UTC) header in descending order
Start Az.
Max El. time (UTC)
Max El. Az.
Max El.
End time (UTC)
End Az.
14 mins2024-12-26 15:03:50.623Z322.024° NNW2024-12-26 15:09:50.623Z270.847° WNW43.611°2024-12-26 15:17:50.623Z156.277° SSE
5 mins2024-12-26 16:57:50.623Z274.153° WNW2024-12-26 16:59:50.623Z257.611° W13.228°2024-12-26 17:02:50.623Z233.282° WSW
9 mins2024-12-27 04:55:50.623Z165.072° S2024-12-27 04:59:50.623Z112.839° SE27.662°2024-12-27 05:04:50.623Z54.927° ENE
10 mins2024-12-27 06:45:50.623Z244.793° WSW2024-12-27 06:49:50.623Z298.441° NW35.398°2024-12-27 06:55:50.623Z22.178° NNE
4 mins2024-12-27 08:41:50.623Z325.728° NNW2024-12-27 08:42:50.623Z335.6° NNW13.189°2024-12-27 08:45:50.623Z3.182° NNE
8 mins2024-12-27 12:27:50.623Z359.463° N2024-12-27 12:30:50.623Z29.174° NE19.245°2024-12-27 12:35:50.623Z75.17° E
13 mins2024-12-27 14:17:50.623Z331.917° NNW2024-12-27 14:22:50.623Z29.395° NE43.454°2024-12-27 14:30:50.623Z139.105° SSE
|